Location: Newark
(16.3678°N, 77.8722°E)
Time: 05:52:43
(UTC+00:00)

Tiros 1 - Pass Details

Date: 17 December 2019
Orbit: 630 x 664 km, 48.4° (Epoch: 21 January)

Event Time Altitude Azimuth Distance (km) Brightness Sun altitude
Rises 19:39:46 0° 212° (SSW) 2,983 - -75.3°
Reaches altitude 10° 19:42:09 10° 208° (SSW) 2,071 - -74.8°
Maximum altitude 19:46:50 57° 130° (SE) 773 - -73.8°
Drops below altitude 10° 19:51:31 10° 51° (NE) 2,063 - -72.8°
Sets 19:53:53 0° 48° (NE) 2,970 - -72.3°
